Weather History for Caslav, Czech Republic

Change the Weather History Date:

Tuesday, February 12, 2013

  Actual Average Record
Temperature  
Mean Temperature 28 °F -  
Max Temperature 30 °F - - ()
Min Temperature 26 °F - - ()
Degree Days  
Heating Degree Days 37    
Moisture  
Dew Point 26 °F    
Average Humidity 94    
Maximum Humidity 100    
Minimum Humidity 69    
Precipitation  
Precipitation 0.00 in - - ()
Sea Level Pressure  
Sea Level Pressure 29.79 in    
Wind  
Wind Speed 7 mph ()    
Max Wind Speed 13 mph    
Max Gust Speed -    
Visibility 2.3 miles    
Events Snow    
T = Trace of Precipitation, MM = Missing Value Source: Averaged Metar Reports

Daily Weather History Graph

Daily Weather History Graph

Search for Another Location

Airport:

Trip Planner

Search our weather history database for the weather conditions in past years. The results will help you decide how hot, cold, wet, or windy it might be!

Date:

Astronomy

Feb. 12, 2013 Rise Set
Actual Time 7:14 AM CET 5:11 PM CET
Civil Twilight 6:40 AM CET 5:45 PM CET
Nautical Twilight 6:02 AM CET 6:23 PM CET
Astronomical Twilight 5:25 AM CET 7:00 PM CET
Moon 7:43 AM CET (2/12) 8:16 PM CET (2/12)
Length of Visible Light 11h 05m
Length of Day
9h 57m
Waxing Crescent, 6% of the Moon is Illuminated
Feb 12
Waxing Crescent
Feb 17
First Quarter
Feb 25
Full
Mar 4
Last Quarter
Mar 11
New

Hourly Weather History & Observations

Time (CET) Temp. Windchill Dew Point Humidity Pressure Visibility Wind Dir Wind Speed Gust Speed Precip Events Conditions
12:00 AM 30.2 °F 21.9 °F 21.2 °F 69% 29.77 in 6.2 mi ESE 9.2 mph - N/A   Overcast
1:00 AM 30.2 °F 22.6 °F 23.0 °F 75% 29.77 in 6.2 mi ESE 8.1 mph - N/A   Mostly Cloudy
2:00 AM 28.4 °F 19.7 °F 23.0 °F 80% 29.74 in 6.2 mi ESE 9.2 mph - N/A   Mostly Cloudy
3:00 AM 28.4 °F 19.1 °F 23.0 °F 80% 29.74 in 6.2 mi ESE 10.4 mph - N/A   Overcast
4:00 AM 28.4 °F 19.7 °F 23.0 °F 80% 29.74 in 6.2 mi ESE 9.2 mph - N/A   Overcast
5:00 AM 28.4 °F 18.5 °F 21.2 °F 74% 29.74 in 6.2 mi ESE 11.5 mph - N/A   Overcast
6:00 AM 28.4 °F 20.4 °F 23.0 °F 80% 29.74 in 6.2 mi ESE 8.1 mph - N/A   Overcast
7:00 AM 28.4 °F 21.2 °F 23.0 °F 80% 29.74 in 6.2 mi ESE 6.9 mph - N/A   Overcast
7:48 AM 28.4 °F 21.2 °F 24.8 °F 86% 29.74 in 2.2 mi East 6.9 mph - N/A   Overcast
7:52 AM 28.4 °F 20.4 °F 24.8 °F 86% 29.74 in 1.2 mi East 8.1 mph - N/A Snow Light Snow
8:00 AM 28.4 °F 20.4 °F 24.8 °F 86% 29.74 in 1.2 mi East 8.1 mph - N/A Snow Light Snow
8:06 AM 26.6 °F 17.5 °F 24.8 °F 93% 29.77 in 0.9 mi East 9.2 mph - N/A Snow Light Snow
8:21 AM 26.6 °F 17.5 °F 26.6 °F 100% 29.77 in 0.7 mi ENE 9.2 mph - N/A Snow Light Snow
8:33 AM 26.6 °F 18.2 °F 26.6 °F 100% 29.77 in 0.4 mi ENE 8.1 mph - N/A Snow Snow
8:50 AM 26.6 °F 17.5 °F 26.6 °F 100% 29.77 in 0.4 mi ENE 9.2 mph - N/A Snow Snow
9:00 AM 26.6 °F 17.5 °F 26.6 °F 100% 29.77 in 0.4 mi ENE 9.2 mph - N/A Snow Snow
9:24 AM 26.6 °F 17.5 °F 26.6 °F 100% 29.77 in 0.5 mi ENE 9.2 mph - N/A Snow Snow
10:00 AM 26.6 °F 17.5 °F 26.6 °F 100% 29.77 in 0.5 mi ENE 9.2 mph - N/A Snow Snow
10:31 AM 26.6 °F 16.2 °F 26.6 °F 100% 29.77 in 0.6 mi ENE 11.5 mph - N/A Snow Snow
11:00 AM 26.6 °F 15.7 °F 26.6 °F 100% 29.77 in 0.5 mi ENE 12.7 mph - N/A Snow Snow
12:00 PM 28.4 °F 19.7 °F 26.6 °F 93% 29.77 in 0.4 mi East 9.2 mph - N/A Snow Snow
12:49 PM 28.4 °F 21.2 °F 28.4 °F 100% 29.77 in 0.6 mi ENE 6.9 mph - N/A Snow Light Snow
1:00 PM 28.4 °F 20.4 °F 28.4 °F 100% 29.77 in 0.6 mi ENE 8.1 mph - N/A Snow Light Snow
2:00 PM 28.4 °F 22.2 °F 28.4 °F 100% 29.77 in 0.7 mi ENE 5.8 mph - N/A Snow Light Snow
2:05 PM 28.4 °F 21.2 °F 28.4 °F 100% 29.77 in 2.2 mi ENE 6.9 mph - N/A Snow Light Snow
2:32 PM 28.4 °F 22.2 °F 28.4 °F 100% 29.77 in 3.1 mi ENE 5.8 mph - N/A Snow Light Snow
3:00 PM 28.4 °F 21.2 °F 28.4 °F 100% 29.77 in 4.3 mi ENE 6.9 mph - N/A Snow Light Snow
4:00 PM 28.4 °F 22.2 °F 28.4 °F 100% 29.80 in 3.1 mi ENE 5.8 mph - N/A Snow Light Snow
4:10 PM 28.4 °F 22.2 °F 28.4 °F 100% 29.80 in 2.2 mi ENE 5.8 mph - N/A Snow Light Snow
5:00 PM 28.4 °F 23.3 °F 28.4 °F 100% 29.80 in 1.9 mi ENE 4.6 mph - N/A Snow Light Snow
6:00 PM 28.4 °F - 28.4 °F 100% 29.83 in 2.8 mi Calm Calm - N/A Snow Light Snow
6:31 PM 28.4 °F - 28.4 °F 100% 29.83 in 3.1 mi Variable 1.2 mph - N/A Snow Light Snow
7:00 PM 28.4 °F - 28.4 °F 100% 29.83 in 3.1 mi Variable 2.3 mph - N/A Snow Light Snow
7:44 PM 28.4 °F - 28.4 °F 100% 29.83 in 1.6 mi Calm Calm - N/A Snow Light Snow
8:00 PM 28.4 °F - 28.4 °F 100% 29.83 in 1.6 mi Variable 1.2 mph - N/A Snow Light Snow
8:18 PM 28.4 °F - 28.4 °F 100% 29.86 in 0.7 mi Calm Calm - N/A Snow Light Snow
9:00 PM 28.4 °F - 28.4 °F 100% 29.86 in 0.7 mi Calm Calm - N/A Snow Light Snow
9:29 PM 28.4 °F - 28.4 °F 100% 29.86 in 0.6 mi Calm Calm - N/A   Overcast
10:00 PM 28.4 °F - 28.4 °F 100% 29.86 in 0.6 mi Calm Calm - N/A   Overcast
11:00 PM 28.4 °F - 26.6 °F 93% 29.89 in 0.6 mi WSW 2.3 mph - N/A   Overcast
11:43 PM 28.4 °F - 28.4 °F 100% 29.89 in 0.6 mi Calm Calm - N/A   Overcast